Winona, MN

4:34 PM CDT on March 30, 2017 (GMT -0500)
Winona Municipal-Conrad

Weather History for KONA - December, 2012

Change the Weather History Date:

Sunday, December 23, 2012

  Actual Average Record
Temperature  
Mean Temperature 16 °F -  
Max Temperature 23 °F 27 °F 46 °F (2005)
Min Temperature 10 °F 15 °F -9 °F (1999)
Degree Days  
Heating Degree Days 48    
Moisture  
Dew Point 12 °F    
Average Humidity 77    
Maximum Humidity 92    
Minimum Humidity 63    
Precipitation  
Precipitation 0.00 in - - ()
Sea Level Pressure  
Sea Level Pressure 30.06 in    
Wind  
Wind Speed 4 mph (North)    
Max Wind Speed 8 mph    
Max Gust Speed -    
Visibility 10 miles    
Events      
Averages and records for this station are not official NWS values.
T = Trace of Precipitation, MM = Missing Value Source: NWS Daily Summary

Daily Weather History Graph

Daily Weather History Graph

Search for Another Location

Airport or City:

Trip Planner

Search our weather history database for the weather conditions in past years. The results will help you decide how hot, cold, wet, or windy it might be!

Date:

Astronomy

Dec. 23, 2012 Rise Set
Actual Time 7:39 AM CST 4:32 PM CST
Civil Twilight 7:06 AM CST 5:05 PM CST
Nautical Twilight 6:30 AM CST 5:42 PM CST
Astronomical Twilight 5:54 AM CST 6:17 PM CST
Moon 1:27 PM CST (12/23) 3:18 AM CST (12/23)
Length of Visible Light 9h 59m
Length of Day
8h 52m
Waxing Gibbous, 82% of the Moon is Illuminated
Dec 23
Waxing Gibbous
Dec 28
Full
Jan 4
Last Quarter
Jan 11
New
Jan 18
First Quarter

Hourly Weather History & Observations

Time (CST) Temp. Windchill Dew Point Humidity Pressure Visibility Wind Dir Wind Speed Gust Speed Precip Events Conditions
12:13 AM 14.0 °F 8.2 °F 10.4 °F 86% 30.00 in 10.0 mi WNW 3.5 mph - N/A   Clear
12:33 AM 12.2 °F 6.1 °F 10.4 °F 92% 30.01 in 10.0 mi NW 3.5 mph - N/A   Clear
12:54 AM 14.0 °F 8.2 °F 10.4 °F 86% 30.01 in 10.0 mi NW 3.5 mph - N/A   Clear
1:13 AM 14.0 °F 6.5 °F 10.4 °F 86% 30.01 in 10.0 mi NW 4.6 mph - N/A   Clear
1:33 AM 14.0 °F 8.2 °F 10.4 °F 86% 30.02 in 10.0 mi WNW 3.5 mph - N/A   Clear
1:53 AM 14.0 °F 6.5 °F 10.4 °F 86% 30.02 in 10.0 mi NW 4.6 mph - N/A   Clear
2:13 AM 10.4 °F 0.8 °F 8.6 °F 92% 30.03 in 10.0 mi NNW 5.8 mph - N/A   Clear
2:34 AM 12.2 °F 4.3 °F 10.4 °F 92% 30.03 in 10.0 mi NNW 4.6 mph - N/A   Clear
2:53 AM 10.4 °F 2.2 °F 8.6 °F 92% 30.03 in 10.0 mi NNW 4.6 mph - N/A   Clear
3:13 AM 14.0 °F 8.2 °F 10.4 °F 86% 30.02 in 10.0 mi NW 3.5 mph - N/A   Clear
3:34 AM 12.2 °F 2.9 °F 10.4 °F 92% 30.03 in 10.0 mi NNW 5.8 mph - N/A   Clear
3:53 AM 14.0 °F 3.9 °F 10.4 °F 86% 30.04 in 10.0 mi NNW 6.9 mph - N/A   Clear
4:13 AM 15.8 °F 10.2 °F 12.2 °F 86% 30.05 in 10.0 mi North 3.5 mph - N/A   Mostly Cloudy
4:33 AM 15.8 °F 10.2 °F 12.2 °F 86% 30.06 in 10.0 mi North 3.5 mph - N/A   Overcast
4:53 AM 15.8 °F 10.2 °F 12.2 °F 86% 30.06 in 10.0 mi NNW 3.5 mph - N/A   Overcast
5:14 AM 15.8 °F 8.6 °F 12.2 °F 86% 30.07 in 10.0 mi NNW 4.6 mph - N/A   Overcast
5:33 AM 15.8 °F 7.2 °F 12.2 °F 86% 30.08 in 10.0 mi NNW 5.8 mph - N/A   Overcast
5:54 AM 17.6 °F 10.7 °F 14.0 °F 86% 30.09 in 10.0 mi NW 4.6 mph - N/A   Overcast
6:13 AM 19.4 °F 12.8 °F 14.0 °F 80% 30.09 in 10.0 mi NNW 4.6 mph - N/A   Overcast
6:33 AM 19.4 °F - 14.0 °F 80% 30.09 in 10.0 mi Calm Calm - N/A   Overcast
6:54 AM 19.4 °F 11.5 °F 14.0 °F 80% 30.10 in 10.0 mi North 5.8 mph - N/A   Overcast
7:13 AM 19.4 °F 12.8 °F 14.0 °F 80% 30.09 in 10.0 mi North 4.6 mph - N/A   Overcast
7:33 AM 19.4 °F 10.4 °F 14.0 °F 80% 30.09 in 10.0 mi NNE 6.9 mph - N/A   Overcast
7:54 AM 19.4 °F 14.3 °F 14.0 °F 80% 30.09 in 10.0 mi North 3.5 mph - N/A   Overcast
8:14 AM 19.4 °F 11.5 °F 14.0 °F 80% 30.08 in 10.0 mi NE 5.8 mph - N/A   Overcast
8:33 AM 19.4 °F 11.5 °F 14.0 °F 80% 30.08 in 10.0 mi NNE 5.8 mph - N/A   Overcast
8:53 AM 19.4 °F 11.5 °F 14.0 °F 80% 30.10 in 10.0 mi ENE 5.8 mph - N/A   Overcast
9:14 AM 19.4 °F 10.4 °F 12.2 °F 74% 30.11 in 10.0 mi NE 6.9 mph - N/A   Scattered Clouds
9:33 AM 19.4 °F 12.8 °F 12.2 °F 74% 30.11 in 10.0 mi ENE 4.6 mph - N/A   Mostly Cloudy
9:54 AM 19.4 °F 10.4 °F 12.2 °F 74% 30.12 in 10.0 mi ENE 6.9 mph - N/A   Mostly Cloudy
10:13 AM 19.4 °F 11.5 °F 12.2 °F 74% 30.12 in 10.0 mi NE 5.8 mph - N/A   Scattered Clouds
10:33 AM 19.4 °F 11.5 °F 12.2 °F 74% 30.12 in 10.0 mi ENE 5.8 mph - N/A   Mostly Cloudy
10:54 AM 19.4 °F 12.8 °F 10.4 °F 68% 30.12 in 10.0 mi NE 4.6 mph - N/A   Mostly Cloudy
11:13 AM 21.2 °F 13.6 °F 12.2 °F 68% 30.11 in 10.0 mi East 5.8 mph - N/A   Scattered Clouds
11:33 AM 21.2 °F - 12.2 °F 68% 30.10 in 10.0 mi Calm Calm - N/A   Mostly Cloudy
11:54 AM 21.2 °F - 12.2 °F 68% 30.09 in 10.0 mi Calm Calm - N/A   Mostly Cloudy
12:13 PM 21.2 °F 14.9 °F 12.2 °F 68% 30.08 in 10.0 mi East 4.6 mph - N/A   Scattered Clouds
12:33 PM 19.4 °F 9.5 °F 10.4 °F 68% 30.08 in 10.0 mi ENE 8.1 mph - N/A   Clear
12:54 PM 21.2 °F 13.6 °F 12.2 °F 68% 30.07 in 10.0 mi ENE 5.8 mph - N/A   Clear
1:13 PM 21.2 °F - 12.2 °F 68% 30.07 in 10.0 mi Calm Calm - N/A   Clear
1:33 PM 21.2 °F - 12.2 °F 68% 30.06 in 10.0 mi Calm Calm - N/A   Clear
1:54 PM 23.0 °F - 12.2 °F 63% 30.06 in 10.0 mi Calm Calm - N/A   Clear
2:13 PM 23.0 °F - 12.2 °F 63% 30.05 in 10.0 mi Calm Calm - N/A   Clear
2:33 PM 21.2 °F 14.9 °F 12.2 °F 68% 30.06 in 10.0 mi ENE 4.6 mph - N/A   Clear
2:54 PM 21.2 °F - 12.2 °F 68% 30.06 in 10.0 mi Calm Calm - N/A   Clear
3:14 PM 21.2 °F 16.4 °F 12.2 °F 68% 30.08 in 10.0 mi North 3.5 mph - N/A   Clear
3:33 PM 21.2 °F 16.4 °F 12.2 °F 68% 30.07 in 10.0 mi NNE 3.5 mph - N/A   Clear
3:54 PM 21.2 °F 16.4 °F 12.2 °F 68% 30.06 in 10.0 mi NE 3.5 mph - N/A   Clear
4:14 PM 21.2 °F - 12.2 °F 68% 30.07 in 10.0 mi Calm Calm - N/A   Clear
4:33 PM 21.2 °F - 12.2 °F 68% 30.07 in 10.0 mi Calm Calm - N/A   Clear
4:54 PM 21.2 °F - 12.2 °F 68% 30.07 in 10.0 mi Calm Calm - N/A   Clear
5:14 PM 21.2 °F - 12.2 °F 68% 30.07 in 10.0 mi Calm Calm - N/A   Clear
5:33 PM 21.2 °F - 12.2 °F 68% 30.07 in 10.0 mi Calm Calm - N/A   Clear
5:53 PM 19.4 °F 14.3 °F 12.2 °F 74% 30.08 in 10.0 mi NNW 3.5 mph - N/A   Clear
6:14 PM 19.4 °F - 12.2 °F 74% 30.07 in 10.0 mi Calm Calm - N/A   Clear
6:33 PM 19.4 °F - 12.2 °F 74% 30.07 in 10.0 mi Calm Calm - N/A   Clear
6:53 PM 19.4 °F 14.3 °F 14.0 °F 80% 30.07 in 10.0 mi WNW 3.5 mph - N/A   Clear
7:14 PM 19.4 °F 14.3 °F 12.2 °F 74% 30.08 in 10.0 mi WNW 3.5 mph - N/A   Clear
7:33 PM 19.4 °F 12.8 °F 12.2 °F 74% 30.07 in 10.0 mi NW 4.6 mph - N/A   Clear
7:53 PM 17.6 °F 10.7 °F 12.2 °F 79% 30.06 in 10.0 mi NW 4.6 mph - N/A   Clear
8:14 PM 17.6 °F 10.7 °F 10.4 °F 73% 30.06 in 10.0 mi NW 4.6 mph - N/A   Clear
8:53 PM 15.8 °F - 10.4 °F 79% 30.04 in 10.0 mi Calm Calm - N/A   Clear
9:13 PM 17.6 °F - 12.2 °F 79% 30.03 in 10.0 mi Calm Calm - N/A   Clear
9:33 PM 17.6 °F - 12.2 °F 79% 30.04 in 10.0 mi Calm Calm - N/A   Clear
9:54 PM 19.4 °F - 12.2 °F 74% 30.04 in 10.0 mi Calm Calm - N/A   Clear
10:13 PM 15.8 °F - 10.4 °F 79% 30.04 in 10.0 mi Calm Calm - N/A   Clear
10:33 PM 17.6 °F - 12.2 °F 79% 30.04 in 10.0 mi Calm Calm - N/A   Clear
10:54 PM 17.6 °F - 12.2 °F 79% 30.03 in 10.0 mi Calm Calm - N/A   Clear
11:13 PM 17.6 °F - 12.2 °F 79% 30.02 in 10.0 mi Calm Calm - N/A   Clear
11:33 PM 15.8 °F - 10.4 °F 79% 30.01 in 10.0 mi Calm Calm - N/A   Clear
11:54 PM 15.8 °F - 10.4 °F 79% 30.00 in 10.0 mi Calm Calm - N/A   Clear